[[{"header":{"parameterUnit":"m.s-1","parameterCategory":1,"la1":30.2991,"la2":30.254,"lo1":-89.0895,"lo2":-89.0444,"dy":0.0017,"dx":0.0017,"nx":28,"ny":28,"refTime":"2025-04-03T21:00:00:Z","depth":0,"parameterNumber":2,"parameterNumberName":"U-component_of_WINDS"},"data":[0,0,0,0,0,0,0,0,0,0,0,0,0,0,0,0,0,0,0,0,0,0,0,0,0,0,0,0,0,0,0,0,0,0,0,0,0,0,0,0,0,0,0,0,0,0,0,0,0,0,0,0,0,0,0,0,0,0,-5.8671,-5.8673,0,-5.8819,-5.8821,-5.8822,-5.8837,-5.8836,-5.8834,-5.8833,-5.898,-5.8985,-5.899,0,0,0,0,0,0,0,0,0,0,0,0,0,-5.8399,-5.8404,-5.8671,-5.8673,-5.8675,-5.8819,-5.8821,-5.8823,-5.8838,-5.8836,-5.8834,-5.8832,-5.8978,-5.8984,-5.8991,0,0,0,0,0,0,0,0,0,0,0,0,0,-5.8529,-5.8406,-5.8671,-5.87,-5.8704,-5.8818,-5.8821,-5.8823,-5.8838,-5.8836,-5.8834,-5.8831,-5.8976,-5.8984,-5.8992,-5.9086,0,0,-5.9016,-5.9019,0,0,0,0,0,0,0,0,-5.8522,-5.8539,-5.8694,-5.8698,-5.8703,-5.8808,-5.8779,-5.8911,-5.8839,-5.8787,-5.8833,-5.883,-5.8924,-5.8936,-5.8969,-5.9093,-5.9099,-5.9017,-5.9021,-5.9025,-5.9027,0,0,0,0,0,0,0,-5.8513,-5.8533,-5.873,-5.8696,-5.8702,-5.8704,-5.872,-5.8804,-5.8866,-5.8791,-5.8793,-5.881,-5.8926,-5.8961,-5.8972,-5.9101,-5.9016,-5.9023,-5.9028,-5.9031,-5.9309,-5.9311,0,0,0,0,0,0,-5.8499,-5.8525,-5.8725,-5.8734,-5.8605,-5.8711,-5.8729,-5.8776,-5.8865,-5.8877,-5.8812,-5.881,-5.8948,-5.8963,-5.8977,-5.9092,-5.9025,-5.9032,-5.9037,-5.9306,-5.9309,-5.9312,0,0,0,0,0,0,-5.8493,-5.8516,-5.8719,-5.863,-5.8656,-5.8718,-5.8771,-5.878,-5.8815,-5.8881,-5.8892,-5.8836,-5.8947,-5.8966,-5.9059,-5.9097,-5.9036,-5.9043,-5.9303,-5.9307,-5.9311,-5.9323,0,0,0,0,0,0,-5.8485,-5.8514,-5.8551,-5.8631,-5.8661,-5.8799,-5.8774,-5.8785,-5.8829,-5.8829,-5.8907,-5.8917,-5.8947,-5.9047,-5.9067,-5.9107,-5.9049,-5.93,-5.9305,-5.931,-5.9319,-5.9327,-5.9333,0,0,0,0,0,-5.8475,-5.8548,-5.8553,-5.8577,-5.8709,-5.8801,-5.8818,-5.8851,-5.8832,-5.8869,-5.8912,-5.8915,-5.9091,-5.9056,-5.9079,-5.9122,-5.9298,-5.9304,-5.9309,-5.9316,-5.9325,-5.9333,0,0,0,0,0,0,-5.847,-5.8559,-5.8565,-5.8667,-5.8726,-5.8803,-5.8851,-5.886,-5.8925,-5.8922,-5.896,-5.8977,-5.9068,-5.9105,-5.9065,-5.9218,-5.9192,-5.9203,-5.919,-5.9199,-5.9206,-5.9193,-5.9056,0,0,0,0,0,-5.8481,-5.8549,-5.8623,-5.8705,-5.8735,-5.8788,-5.883,-5.8851,-5.8913,-5.8938,-5.8988,-5.9047,-5.9116,-5.916,-5.9227,-5.9326,-5.9342,-5.9367,-5.9374,-5.938,-5.9387,-5.9441,-5.9452,-5.9331,-5.9331,-5.9331,0,0,-5.8503,-5.856,-5.8601,-5.8706,-5.8754,-5.8823,-5.8809,-5.8883,-5.8934,-5.8949,-5.9039,-5.9078,-5.9147,-5.9243,-5.9288,-5.9276,-5.9425,-5.9387,-5.9391,-5.9396,-5.9448,-5.9459,-5.9469,-5.9335,-5.9335,-5.9334,0,0,-5.8578,-5.863,-5.8703,-5.8753,-5.8827,-5.8862,-5.888,-5.8957,-5.8983,-5.9075,-5.9087,-5.9149,-5.9267,-5.9315,-5.9355,-5.9451,-5.9455,-5.9472,-5.9506,-5.9558,-5.9568,-5.9576,-5.9608,-5.9619,-5.948,-5.948,-5.948,0,-5.8596,-5.8701,-5.8739,-5.8813,-5.8858,-5.8877,-5.895,-5.8997,-5.9089,-5.9119,-5.9106,-5.9254,-5.9302,-5.9409,-5.9432,-5.9465,-5.9485,-5.9461,-5.9564,-5.9573,-5.9581,-5.9612,-5.9624,-5.9481,-5.9481,-5.9481,-5.9481,0,-5.8718,-5.8792,-5.8842,-5.8931,-5.8983,-5.9056,-5.9103,-5.915,-5.9168,-5.9204,-5.9296,-5.9356,-5.9434,-5.9462,-5.9479,-5.9571,-5.9562,-5.9556,-5.953,-5.9593,-5.9623,-5.9635,-5.9483,-5.9482,-5.9482,-5.9482,0,0,-5.8791,-5.8903,-5.892,-5.8961,-5.9045,-5.9102,-5.9176,-5.9255,-5.9293,-5.9357,-5.9418,-5.9519,-5.9514,-5.956,-5.9583,-5.9629,-5.9698,-5.9617,-5.9619,-5.9628,-5.9801,-5.9803,-5.9816,-5.9704,-5.9706,-5.9708,-5.9795,0,-5.8874,-5.9007,-5.9044,-5.9156,-5.9223,-5.9243,-5.9308,-5.9366,-5.9402,-5.9463,-5.9503,-5.9573,-5.9563,-5.959,-5.9637,-5.968,-5.9733,-5.9675,-5.9759,-5.9761,-5.9737,-5.9832,-5.9834,-5.9912,-5.9807,-5.9809,-5.981,0,-5.8988,-5.9055,-5.9174,-5.925,-5.9279,-5.9336,-5.9411,-5.947,-5.9537,-5.956,-5.9612,-5.9631,-5.9707,-5.9681,-5.9786,-5.9745,-5.9783,-5.9809,-5.9813,-5.9819,-5.9787,-5.9838,-5.9939,-5.9949,-5.9829,-5.9828,-5.9826,0,-5.9026,-5.9146,-5.9232,-5.9267,-5.9358,-5.9398,-5.9437,-5.9502,-5.9547,-5.9612,-5.9641,-5.9715,-5.9754,-5.981,-5.9848,-5.9825,-5.9949,-5.9926,-5.9969,-5.9968,-5.9991,-5.9988,-6.0096,-6.002,-6.002,-6.002,-6.002,0,-5.9113,-5.9184,-5.925,-5.9303,-5.9383,-5.9425,-5.9503,-5.9544,-5.9601,-5.9661,-5.9684,-5.9739,-5.9788,-5.985,-5.9881,-5.9962,-5.998,-6.0,-6.0006,-5.9996,-5.9993,-6.0018,-6.0012,-6.0023,-6.0022,-6.0022,-6.0021,0,-5.9167,-5.9215,-5.931,-5.939,-5.9411,-5.9466,-5.9534,-5.9585,-5.9624,-5.9699,-5.9719,-5.9779,-5.9853,-5.9898,-5.9991,-6.0012,-6.0101,-6.0107,-6.0078,-6.0081,-6.012,-6.0114,-6.0245,-6.0263,-6.0178,-6.0179,-6.0179,0,-5.9217,-5.9273,-5.9359,-5.9401,-5.9442,-5.951,-5.9556,-5.96,-5.9647,-5.9727,-5.9769,-5.9845,-5.9908,-6.0025,-6.0076,-6.0148,-6.0153,-6.0195,-6.0164,-6.0152,-6.0151,-6.0146,-6.0151,-6.0198,-6.0199,-6.02,-6.02,0,-5.9301,-5.9323,-5.9389,-5.9464,-5.9519,-5.958,-5.964,-5.9673,-5.9727,-5.9779,-5.9856,-5.9905,-6.0001,-6.0076,-6.0152,-6.0192,-6.0204,-6.021,-6.0223,-6.0211,-6.0191,-6.02,-6.0089,-6.0206,-6.0205,-6.0205,-6.0204,-6.0204,-5.9354,-5.9403,-5.9472,-5.9545,-5.9595,-5.9652,-5.9703,-5.9749,-5.9814,-5.9896,-5.9919,-5.9999,-6.0064,-6.0168,-6.021,-6.0272,-6.0266,-6.0285,-6.029,-6.0293,-6.0293,-6.0184,-6.0287,-6.0287,-6.0287,-6.0287,-6.0286,0,-5.9436,-5.9482,-5.9549,-5.9633,-5.9691,-5.97,-5.9768,-5.9814,-5.9885,-5.9946,-6.0007,-6.0095,-6.0168,-6.0226,-6.03,-6.0339,-6.0346,-6.0357,-6.0352,-6.0361,-6.0296,-6.0275,-6.0349,-6.0349,-6.0349,-6.0349,-6.0349,-6.0349,-5.9486,-5.957,-5.96,-5.9709,-5.9754,-5.9833,-5.9871,-5.9922,-5.9971,-6.0068,-6.0129,-6.0167,-6.0226,-6.0305,-6.0372,-6.0387,-6.0412,-6.0421,-6.0436,-6.0373,-6.0366,-6.0359,-6.034,-6.0426,-6.0427,-6.0496,-6.0497,-6.0497]},{"header":{"parameterUnit":"m.s-1","parameterCategory":1,"la1":30.2991,"la2":30.254,"lo1":-89.0895,"lo2":-89.0444,"dy":0.0017,"dx":0.0017,"nx":28,"ny":28,"refTime":"2025-04-03T21:00:00:Z","depth":0,"parameterNumber":3,"parameterNumberName":"V-component_of_WINDS"},"data":[0,0,0,0,0,0,0,0,0,0,0,0,0,0,0,0,0,0,0,0,0,0,0,0,0,0,0,0,0,0,0,0,0,0,0,0,0,0,0,0,0,0,0,0,0,0,0,0,0,0,0,0,0,0,0,0,0,0,4.6586,4.6588,0,4.6705,4.6706,4.6708,4.6734,4.6733,4.6732,4.6731,4.6849,4.6853,4.6856,0,0,0,0,0,0,0,0,0,0,0,0,0,4.638,4.6384,4.6586,4.6588,4.6589,4.6705,4.6706,4.6708,4.6734,4.6733,4.6732,4.6731,4.6847,4.6852,4.6857,0,0,0,0,0,0,0,0,0,0,0,0,0,4.6481,4.6385,4.6586,4.6616,4.662,4.6704,4.6706,4.6708,4.6734,4.6733,4.6732,4.6731,4.6846,4.6852,4.6857,4.6918,0,0,4.6875,4.6878,0,0,0,0,0,0,0,0,4.6476,4.6489,4.661,4.6614,4.6619,4.6703,4.6677,4.6779,4.6735,4.6691,4.6731,4.673,4.6801,4.6811,4.6835,4.6924,4.6929,4.6876,4.6879,4.6882,4.6883,0,0,0,0,0,0,0,4.6469,4.6484,4.6633,4.6612,4.6617,4.6623,4.6636,4.6696,4.6751,4.6695,4.6697,4.6711,4.6803,4.683,4.6838,4.6931,4.6876,4.6881,4.6884,4.6887,4.7079,4.708,0,0,0,0,0,0,4.6457,4.6478,4.6629,4.6637,4.6543,4.6628,4.6643,4.6677,4.6751,4.6761,4.6712,4.6711,4.682,4.6832,4.6843,4.6921,4.6882,4.6887,4.6891,4.7077,4.7079,4.7081,0,0,0,0,0,0,4.6452,4.647,4.6624,4.6558,4.6578,4.6633,4.6672,4.668,4.6707,4.6764,4.6773,4.6729,4.682,4.6834,4.69,4.6926,4.689,4.6895,4.7075,4.7078,4.708,4.7077,0,0,0,0,0,0,4.6446,4.6468,4.6492,4.6558,4.6582,4.6681,4.6673,4.6684,4.6718,4.6719,4.6782,4.6792,4.682,4.6892,4.6906,4.6933,4.69,4.7073,4.7076,4.7079,4.7075,4.7079,4.7083,0,0,0,0,0,4.6439,4.6485,4.6493,4.6511,4.6613,4.6682,4.6695,4.6728,4.6719,4.6744,4.6781,4.679,4.692,4.6898,4.6915,4.6944,4.7072,4.7075,4.7079,4.7074,4.7078,4.7083,0,0,0,0,0,0,4.6418,4.6494,4.6504,4.6573,4.6622,4.6686,4.6718,4.6732,4.6782,4.678,4.6818,4.6832,4.6896,4.6926,4.69,4.7008,4.6996,4.7003,4.6986,4.6991,4.6995,4.6986,4.6905,0,0,0,0,0,4.6422,4.6473,4.6536,4.6591,4.6615,4.6663,4.6694,4.6715,4.6766,4.6786,4.6827,4.6875,4.6928,4.6961,4.7012,4.708,4.7095,4.7108,4.7112,4.7114,4.712,4.7161,4.7168,4.7092,4.7092,4.7092,0,0,4.643,4.6478,4.6507,4.6588,4.6628,4.668,4.6679,4.6733,4.6772,4.6794,4.686,4.6892,4.6948,4.7016,4.7048,4.7043,4.7145,4.7119,4.7121,4.7125,4.7165,4.7173,4.7179,4.7095,4.7094,4.7094,0,0,4.6471,4.6512,4.6564,4.6604,4.6665,4.6697,4.671,4.6774,4.6797,4.6864,4.6882,4.6928,4.7017,4.7057,4.7089,4.7149,4.7159,4.7164,4.7183,4.7222,4.7228,4.7234,4.7257,4.7264,4.7169,4.7169,4.7169,0,4.6472,4.6552,4.6588,4.6643,4.6678,4.6703,4.6756,4.6793,4.6867,4.6891,4.6885,4.6999,4.7038,4.7117,4.7132,4.7156,4.7172,4.7157,4.7225,4.723,4.7236,4.7259,4.7267,4.717,4.717,4.717,4.717,0,4.6552,4.6607,4.6642,4.6715,4.6755,4.6808,4.6852,4.6888,4.6906,4.6939,4.7008,4.7056,4.7119,4.7139,4.7156,4.7222,4.7217,4.7217,4.7206,4.7243,4.7265,4.7274,4.717,4.717,4.717,4.717,0,0,4.6582,4.6677,4.6689,4.6724,4.6795,4.6838,4.6893,4.6956,4.6987,4.7037,4.7085,4.7161,4.7163,4.7199,4.7221,4.7256,4.7302,4.7252,4.7254,4.7261,4.7379,4.738,4.7389,4.731,4.7312,4.7313,4.7375,0,4.6633,4.6734,4.6769,4.6852,4.6904,4.6929,4.6977,4.7026,4.7058,4.7107,4.7142,4.7196,4.7193,4.7216,4.7251,4.7289,4.7327,4.7285,4.7355,4.7357,4.7341,4.74,4.74,4.7456,4.7384,4.7385,4.7386,0,4.6706,4.676,4.6849,4.6916,4.6939,4.6982,4.7044,4.709,4.7146,4.7167,4.7209,4.723,4.7289,4.7274,4.7356,4.7327,4.7358,4.7381,4.7384,4.7392,4.7374,4.7411,4.7474,4.7483,4.74,4.7398,4.7398,0,4.6721,4.6816,4.6883,4.6911,4.699,4.702,4.7054,4.7109,4.7146,4.72,4.7224,4.7283,4.7316,4.7361,4.7398,4.7383,4.7477,4.7464,4.7497,4.7496,4.7516,4.7514,4.7586,4.7534,4.7533,4.7533,4.7533,0,4.6775,4.6828,4.6891,4.6932,4.6993,4.7033,4.7092,4.7128,4.7177,4.7225,4.725,4.7294,4.7339,4.739,4.7418,4.7483,4.7497,4.7516,4.7523,4.7515,4.7513,4.7536,4.7533,4.7536,4.7535,4.7535,4.7534,0,4.6802,4.6846,4.692,4.699,4.7009,4.7051,4.7111,4.7152,4.7186,4.7247,4.7263,4.7317,4.7378,4.7419,4.7496,4.7515,4.7586,4.7592,4.7568,4.7572,4.7603,4.76,4.7693,4.7708,4.7644,4.7645,4.7645,0,4.6834,4.6877,4.6952,4.6987,4.7022,4.7077,4.7116,4.7157,4.7196,4.7265,4.7297,4.736,4.7413,4.751,4.7555,4.7615,4.7623,4.7652,4.7632,4.7623,4.7625,4.7623,4.7628,4.7655,4.7655,4.7655,4.7656,0,4.6887,4.6908,4.6963,4.7026,4.7072,4.7123,4.7175,4.7202,4.7252,4.7295,4.7359,4.74,4.7481,4.7543,4.7608,4.7643,4.7658,4.7662,4.7673,4.7665,4.765,4.766,4.7578,4.7659,4.7659,4.7659,4.7659,4.7658,4.6919,4.6959,4.7019,4.7081,4.7124,4.7173,4.7215,4.7256,4.7311,4.7381,4.7402,4.7468,4.7525,4.7614,4.765,4.7703,4.77,4.7716,4.772,4.7723,4.7724,4.7641,4.7715,4.7715,4.7715,4.7715,4.7714,0,4.6975,4.7016,4.7072,4.7145,4.7193,4.7205,4.7263,4.7303,4.7362,4.7414,4.7467,4.7541,4.7603,4.7654,4.7718,4.7751,4.776,4.7766,4.7765,4.7773,4.7722,4.7707,4.7758,4.7758,4.7758,4.7758,4.7758,4.7758,4.701,4.7079,4.7107,4.7198,4.7238,4.7305,4.7338,4.7383,4.7425,4.7508,4.756,4.7594,4.7647,4.7715,4.7772,4.7786,4.7809,4.7814,4.7829,4.7781,4.7776,4.7771,4.7758,4.7818,4.7818,4.7876,4.7876,4.7877]}]]